{"data":{"norad_id":50185,"epoch":"2026-09-20T01:42:07.221024Z","epoch_age_seconds":81745,"freshness":"FRESH","line1":"1 50185U 21125AF  26263.07091691  .00000183  00000+0  17664-4 0  9991","line2":"2 50185  53.1595  83.7553 0001226  88.7012 271.4130 15.31708977266120","mean_motion":15.31708977,"eccentricity":0.0001226,"inclination_deg":53.1595,"raan_deg":83.7553,"arg_perigee_deg":88.7012,"mean_anomaly_deg":271.413,"bstar":1.7664e-5,"rev_number":26612,"period_min":94.01263697105,"perigee_km":469.87356634761,"apogee_km":471.55290442533,"semimajor_km":6848.8502353865,"source":"CELESTRAK","updated_at":"2026-09-20T09:00:39.417564Z"}}